Weather History for Victorville, CA

Change the Weather History Date:

Sunday, January 20, 2013

  Actual Average (KSBD) Record (KSBD)
Temperature  
Mean Temperature 44 °F -  
Max Temperature 62 °F 65 °F 80 °F (2014)
Min Temperature 26 °F 41 °F 35 °F (2013)
Degree Days  
Heating Degree Days 21    
Moisture  
Dew Point 9 °F    
Average Humidity 28    
Maximum Humidity 55    
Minimum Humidity 11    
Precipitation  
Precipitation 0.00 in - - ()
Sea Level Pressure  
Sea Level Pressure 30.23 in    
Wind  
Wind Speed 7 mph (ESE)    
Max Wind Speed 9 mph    
Max Gust Speed -    
Visibility 10 miles    
Events      
Averages and records for this station are not official NWS values.
T = Trace of Precipitation, MM = Missing Value Source: NWS Daily Summary

Daily Weather History Graph

Daily Weather History Graph

Search for Another Location

Airport:

Trip Planner

Search our weather history database for the weather conditions in past years. The results will help you decide how hot, cold, wet, or windy it might be!

Date:

Astronomy

Jan. 20, 2013 Rise Set
Actual Time 6:54 AM PST 5:07 PM PST
Civil Twilight 6:27 AM PST 5:34 PM PST
Nautical Twilight 5:56 AM PST 6:05 PM PST
Astronomical Twilight 5:26 AM PST 6:35 PM PST
Moon 12:10 PM PST 1:32 AM PST
Length of Visible Light 11h 07m
Length of Day
10h 13m
Waxing Gibbous, 67% of the Moon is Illuminated
Jan 20
Waxing Gibbous
Jan 26
Full
Feb 3
Last Quarter
Feb 9
New
Feb 17
First Quarter

Hourly Weather History & Observations

Time (PST) Temp. Windchill Dew Point Humidity Pressure Visibility Wind Dir Wind Speed Gust Speed Precip Events Conditions
12:15 AM 32.0 °F 25.6 °F 8.6 °F 38% 30.27 in 10.0 mi SE 6.9 mph - N/A   Clear
12:35 AM 32.0 °F 24.2 °F 10.4 °F 41% 30.27 in 10.0 mi SE 9.2 mph - N/A   Clear
12:55 AM 33.8 °F 26.4 °F 12.2 °F 41% 30.27 in 10.0 mi SE 9.2 mph - N/A   Clear
1:15 AM 33.8 °F 27.0 °F 12.2 °F 41% 30.27 in 10.0 mi SE 8.1 mph - N/A   Clear
1:35 AM 33.8 °F 27.7 °F 12.2 °F 41% 30.28 in 10.0 mi SE 6.9 mph - N/A   Clear
1:55 AM 33.8 °F 26.4 °F 12.2 °F 41% 30.28 in 10.0 mi SE 9.2 mph - N/A   Clear
2:15 AM 33.8 °F 27.7 °F 12.2 °F 41% 30.27 in 10.0 mi SE 6.9 mph - N/A   Clear
2:35 AM 32.0 °F 24.8 °F 12.2 °F 44% 30.27 in 10.0 mi SE 8.1 mph - N/A   Clear
2:55 AM 28.4 °F 22.2 °F 12.2 °F 51% 30.27 in 10.0 mi SSE 5.8 mph - N/A   Clear
3:15 AM 26.6 °F 19.1 °F 12.2 °F 55% 30.27 in 10.0 mi SSE 6.9 mph - N/A   Clear
3:35 AM 26.6 °F 18.2 °F 12.2 °F 55% 30.27 in 10.0 mi SE 8.1 mph - N/A   Clear
3:55 AM 28.4 °F 21.2 °F 12.2 °F 51% 30.26 in 10.0 mi SSE 6.9 mph - N/A   Clear
4:15 AM 28.4 °F 21.2 °F 12.2 °F 51% 30.26 in 10.0 mi SSE 6.9 mph - N/A   Clear
4:35 AM 28.4 °F 19.7 °F 12.2 °F 51% 30.26 in 10.0 mi SE 9.2 mph - N/A   Clear
4:55 AM 30.2 °F 21.9 °F 12.2 °F 47% 30.25 in 10.0 mi SE 9.2 mph - N/A   Clear
5:15 AM 30.2 °F 21.9 °F 12.2 °F 47% 30.25 in 10.0 mi SE 9.2 mph - N/A   Clear
5:35 AM 28.4 °F 21.2 °F 12.2 °F 51% 30.26 in 10.0 mi SE 6.9 mph - N/A   Clear
5:55 AM 28.4 °F 19.7 °F 12.2 °F 51% 30.26 in 10.0 mi SE 9.2 mph - N/A   Clear
6:35 AM 30.2 °F 22.6 °F 12.2 °F 47% 30.26 in 10.0 mi SE 8.1 mph - N/A   Clear
6:55 AM 30.2 °F 22.6 °F 12.2 °F 47% 30.26 in 10.0 mi SE 8.1 mph - N/A   Clear
7:15 AM 30.2 °F 21.9 °F 12.2 °F 47% 30.26 in 10.0 mi SE 9.2 mph - N/A   Clear
7:35 AM 33.8 °F 26.4 °F 12.2 °F 41% 30.26 in 10.0 mi SE 9.2 mph - N/A   Clear
7:55 AM 35.6 °F 28.6 °F 12.2 °F 38% 30.26 in 10.0 mi SE 9.2 mph - N/A   Clear
8:15 AM 37.4 °F 32.1 °F 12.2 °F 36% 30.27 in 10.0 mi SE 6.9 mph - N/A   Clear
8:35 AM 41.0 °F 36.4 °F 12.2 °F 31% 30.28 in 10.0 mi SE 6.9 mph - N/A   Clear
8:55 AM 42.8 °F 38.0 °F 12.2 °F 29% 30.28 in 10.0 mi ESE 8.1 mph - N/A   Clear
9:15 AM 42.8 °F 40.1 °F 12.2 °F 29% 30.28 in 10.0 mi ESE 4.6 mph - N/A   Clear
9:35 AM 46.4 °F 45.2 °F 12.2 °F 25% 30.29 in 10.0 mi SE 3.5 mph - N/A   Clear
9:55 AM 48.2 °F - 12.2 °F 24% 30.28 in 10.0 mi Calm Calm - N/A   Clear
10:15 AM 50.0 °F - 10.4 °F 20% 30.29 in 10.0 mi Calm Calm - N/A   Clear
10:35 AM 51.8 °F - 8.6 °F 18% 30.28 in 10.0 mi Calm Calm - N/A   Clear
10:55 AM 53.6 °F - 8.6 °F 16% 30.27 in 10.0 mi NNW 3.5 mph - N/A   Clear
11:15 AM 55.4 °F - 6.8 °F 14% 30.26 in 10.0 mi North 4.6 mph - N/A   Clear
11:35 AM 57.2 °F - 8.6 °F 14% 30.25 in 10.0 mi NNW 5.8 mph - N/A   Clear
11:55 AM 57.2 °F - 8.6 °F 14% 30.24 in 10.0 mi NW 3.5 mph - N/A   Clear
12:15 PM 59.0 °F - 6.8 °F 13% 30.23 in 10.0 mi North 5.8 mph - N/A   Clear
12:35 PM 60.8 °F - 6.8 °F 12% 30.22 in 10.0 mi NNW 8.1 mph - N/A   Clear
12:55 PM 60.8 °F - 6.8 °F 12% 30.20 in 10.0 mi North 9.2 mph - N/A   Clear
1:15 PM 60.8 °F - 6.8 °F 12% 30.20 in 10.0 mi NNW 6.9 mph - N/A   Clear
1:35 PM 62.6 °F - 6.8 °F 11% 30.19 in 10.0 mi NNW 9.2 mph - N/A   Clear
1:55 PM 62.6 °F - 6.8 °F 11% 30.19 in 10.0 mi NNW 8.1 mph - N/A   Clear
2:15 PM 62.6 °F - 6.8 °F 11% 30.19 in 10.0 mi North 8.1 mph - N/A   Clear
2:35 PM 62.6 °F - 6.8 °F 11% 30.18 in 10.0 mi NNE 6.9 mph - N/A   Clear
2:55 PM 62.6 °F - 6.8 °F 11% 30.18 in 10.0 mi NNW 5.8 mph - N/A   Clear
3:15 PM 62.6 °F - 6.8 °F 11% 30.18 in 10.0 mi North 9.2 mph - N/A   Unknown
3:35 PM 62.6 °F - 6.8 °F 11% 30.18 in 10.0 mi NNW 6.9 mph - N/A   Unknown
3:55 PM 60.8 °F - 6.8 °F 12% 30.18 in 10.0 mi NNE 5.8 mph - N/A   Unknown
4:15 PM 60.8 °F - 6.8 °F 12% 30.18 in 10.0 mi NNW 4.6 mph - N/A   Unknown
4:35 PM 59.0 °F - 6.8 °F 13% 30.18 in 10.0 mi North 5.8 mph - N/A   Clear
4:55 PM 59.0 °F - 6.8 °F 13% 30.18 in 10.0 mi Calm Calm - N/A   Clear
5:15 PM 55.4 °F - 6.8 °F 14% 30.18 in 10.0 mi NNW 4.6 mph - N/A   Clear
5:35 PM 53.6 °F - 6.8 °F 15% 30.18 in 10.0 mi North 6.9 mph - N/A   Clear
5:55 PM 53.6 °F - 6.8 °F 15% 30.19 in 10.0 mi North 6.9 mph - N/A   Clear
6:15 PM 51.8 °F - 5.0 °F 15% 30.19 in 10.0 mi North 4.6 mph - N/A   Clear
6:35 PM 53.6 °F - 5.0 °F 14% 30.19 in 10.0 mi Calm Calm - N/A   Clear
6:55 PM 51.8 °F - 5.0 °F 15% 30.20 in 10.0 mi Calm Calm - N/A   Clear
7:15 PM 42.8 °F - 5.0 °F 21% 30.20 in 10.0 mi Calm Calm - N/A   Clear
7:35 PM 39.2 °F 34.2 °F 5.0 °F 24% 30.20 in 10.0 mi SSE 6.9 mph - N/A   Clear
7:55 PM 39.2 °F 37.0 °F 3.2 °F 22% 30.21 in 10.0 mi SSE 3.5 mph - N/A   Clear
8:15 PM 35.6 °F 29.9 °F 3.2 °F 26% 30.21 in 10.0 mi South 6.9 mph - N/A   Clear
8:35 PM 35.6 °F 30.7 °F 3.2 °F 26% 30.21 in 10.0 mi South 5.8 mph - N/A   Clear
8:55 PM 35.6 °F 31.7 °F 3.2 °F 26% 30.21 in 10.0 mi South 4.6 mph - N/A   Clear
9:15 PM 37.4 °F 34.9 °F 5.0 °F 26% 30.22 in 10.0 mi ESE 3.5 mph - N/A   Clear
9:35 PM 37.4 °F 32.8 °F 6.8 °F 28% 30.22 in 10.0 mi SE 5.8 mph - N/A   Clear
9:55 PM 35.6 °F 29.9 °F 5.0 °F 28% 30.22 in 10.0 mi SE 6.9 mph - N/A   Clear
10:15 PM 35.6 °F 28.6 °F 6.8 °F 30% 30.22 in 10.0 mi SE 9.2 mph - N/A   Clear
10:35 PM 35.6 °F 29.9 °F 6.8 °F 30% 30.22 in 10.0 mi SE 6.9 mph - N/A   Clear
10:55 PM 37.4 °F 30.8 °F 8.6 °F 30% 30.22 in 10.0 mi SE 9.2 mph - N/A   Clear
11:15 PM 37.4 °F 30.8 °F 10.4 °F 33% 30.22 in 10.0 mi ESE 9.2 mph - N/A   Clear
11:35 PM 37.4 °F 31.4 °F 10.4 °F 33% 30.21 in 10.0 mi SE 8.1 mph - N/A   Clear
11:55 PM 35.6 °F 28.6 °F 10.4 °F 35% 30.21 in 10.0 mi SE 9.2 mph - N/A   Clear